Retour au catalogue

STARLINK-35882

ActifCommunicationsVLEO
NORAD 67088·PAYLOAD·🇺🇸 United States

Lancé Dec 14, 2025 depuis Vandenberg Space Force Base

Loading…

Prochains Passages (prochaines 24 heures)

TLE

FraisSource: CelesTrak SupGP

Époque: Sep 14, 2026, 21:44 UTC

1 67088C 25298P   26257.90604167  .00064076  00000+0  53697-2 0  2571
2 67088  69.9994 257.5443 0003996 265.4143 171.5344 14.98296283    17

Suivez STARLINK-35882 en temps réel avec AllMySat

Download on the App Store